Glenwood Springs, CO (81601)

11:33 PM MST on February 13, 2016 (GMT -0700)
Elk Springs | | Change Station
CLOSE
Current Station
Personal Weather Station
Location: Glenwood Springs, CO
Elevation: 6988 ft
Nearby Weather Stations

Elev 6988 ft 39.48 °N, 107.25 °W | Updated 11 seconds ago

Clear
Clear
29.5 °F
Feels Like 30 °F
N
0.0
Wind Variable Wind from North

Today
High -- | Low -- °F
--% Chance of Precip.
Yesterday
High -- | Low -- °F
Precip. -- in
Pressure 30.30 in
Visibility 10.0 miles
Clouds Clear
Windchill 30 °F
Dew Point 22 °F
Humidity 74%
Rainfall 0.00 in
Snow Depth Not available.
7:04 AM 5:43 PM
Waxing Crescent, 38% visible
METAR KRIL 140553Z AUTO 00000KT 10SM CLR M03/M07 A3023 RMK AO2 SLP260 T10281067 10050 21033 50009
Pressure 30.30 in
Visibility 10.0 miles
Clouds Clear
Windchill 30 °F
Dew Point 22 °F
Humidity 74%
Rainfall 0.00 in
Snow Depth Not available.
7:04 AM 5:43 PM
Waxing Crescent, 38% visible
METAR KRIL 140553Z AUTO 00000KT 10SM CLR M03/M07 A3023 RMK AO2 SLP260 T10281067 10050 21033 50009

10-Day Weather Forecast

Almanac

Astronomy

Feb. 13, 2016 Rise Set
Actual Time
Civil Twilight
Nautical Twilight
Astronomical Twilight
Moon
Length of Visible Light
Length of Day
Tomorrow will be .
, % of the Moon is Illuminated

Today's Extremes

State Highs State Lows

Community

WunderPhotos

Upload Photos

1,892,757 photos uploaded!

WunderBlog® & News

Nearby

Air Quality

  Air Quality AQ Index Pollutant
Not available.

Snow Depth

Station Depth Elevation

Earthquake Activity

City Distance Mag. Time & Date
Minimum magnitude displayed is 2.5.

Coastal Water Temperatures

Place Temperature

Stations

Nearby Weather Stations

Station Location Temp. Windchill Dew Point Humidity Wind Precip. Elev Updated Type
                   

Watches & Warnings

There are currently no watches in effect.